User: anonymous   Login
Location: Unspecified
(0.0000°N, 0.0000°E)
Time: 18:51:13
(UTC+00:00)
Language:

SENTINEL 3A - Orbit

View from above orbital plane
View from above orbital plane
View from above satellite
View from above satellite

Ground track
Ground track

The orbit data is extracted from the following two-line orbital elements,

1 41335U 16011A   19107.89945185 -.00000010 +00000-0 +13898-4 0  9997
2 41335 098.6288 175.7603 0001130 088.5945 271.5365 14.26734598164854
Epoch (UTC): 17 April 2019 21:35:12
Eccentricity: 0.0001130
inclination: 98.6288°
perigee height: 802 km
apogee height: 803 km
right ascension of ascending node: 175.7603°
argument of perigee: 88.5945°
revolutions per day: 14.26734598
mean anomaly at epoch: 271.5365°
orbit number at epoch: 16485

The dashed part of the orbit path shows where the satellite is in the earth's shadow,  

DLR